Temperature
27 27 26 26 30 30 30 31 31 31 31 30 30 29 28 27 26 25 24 23 21 21 21 20 20 19 19 19 19 19 19 18 18 18 18 18 18 18 18 18 18 18 18 18 18 18 18 18 18
27 26 27 29 30 30 30 31 31 31 31 30 30 29 27 26 25 24 23 22 21 20 20 20 20 19 19 19 19 19 18 18 18 18 18 18 18 18 18 18 18 18 18 18 18 18 18 18 18
27 27 29 31 31 30 30 31 31 31 31 30 29 28 27 26 25 24 23 22 21 20 20 20 20 19 19 19 19 18 18 18 18 18 18 18 18 18 18 18 18 18 18 18 18 18 18 18 18
27 29 31 32 31 32 32 32 32 32 31 30 29 27 26 26 25 24 23 22 21 20 20 20 20 19 19 19 19 18 18 18 18 18 18 18 18 18 18 18 18 18 18 18 18 18 18 18 18
29 31 31 32 32 33 33 33 32 32 31 30 28 27 25 25 24 24 23 22 21 20 20 20 20 19 19 19 19 18 18 18 18 18 18 18 18 18 18 18 18 18 18 18 18 18 18 18 18
31 32 31 31 32 33 33 32 32 32 31 29 28 26 25 24 24 24 24 23 22 20 20 20 20 20 19 19 19 18 18 18 18 18 18 18 18 18 18 18 18 18 18 18 18 18 18 18 18
31 32 32 32 32 33 33 33 32 32 31 30 28 27 25 25 24 24 24 23 22 21 20 20 20 20 19 19 19 18 18 18 18 18 18 18 18 18 18 18 18 18 18 18 18 18 18 18 18
33 34 33 33 33 33 33 33 32 31 31 30 29 27 25 25 24 24 24 23 22 21 20 20 19 19 19 19 19 19 19 18 18 18 18 18 18 18 18 18 18 18 18 18 18 18 18 18 18
34 33 33 33 33 33 34 33 31 30 30 30 30 28 26 25 24 24 24 23 22 22 21 20 19 19 19 19 19 19 19 18 18 18 18 18 18 18 18 18 18 18 18 18 18 18 18 18 18
34 33 34 35 35 34 34 33 31 30 29 29 28 26 25 25 24 24 24 23 22 22 21 21 20 19 19 19 19 18 18 18 18 18 18 18 18 17 18 18 18 18 18 18 18 18 18 18 18
35 34 35 35 35 34 34 34 32 31 30 29 27 26 25 25 24 24 24 23 22 22 21 21 20 20 19 19 19 18 18 18 18 18 18 18 18 18 18 18 18 18 18 18 18 18 18 17 18
35 35 35 35 35 35 34 34 33 32 31 30 28 26 26 25 25 24 24 23 22 22 21 21 20 20 19 19 19 19 19 19 18 18 18 18 18 18 18 18 18 18 18 18 18 18 17 18 18
35 35 35 35 35 34 34 34 33 32 31 29 28 27 26 25 25 24 24 23 22 21 21 21 20 20 19 19 19 19 19 19 18 18 18 18 18 18 18 18 18 18 18 18 18 18 18 18 18
35 35 35 35 35 34 34 34 33 32 31 29 28 27 26 26 25 24 23 22 22 21 21 20 20 19 19 19 19 19 19 19 19 18 18 18 18 18 18 18 18 18 18 18 18 18 18 18 18
35 35 35 35 35 34 33 32 33 32 31 30 29 28 27 26 25 24 23 22 22 21 21 20 20 19 19 19 19 19 19 19 19 18 18 18 18 18 18 18 18 18 18 18 18 18 18 18 18
35 34 34 35 35 34 32 30 32 32 31 30 29 28 27 26 25 24 23 22 21 21 20 20 19 19 19 19 19 19 19 19 19 18 18 18 18 18 18 18 18 18 18 18 18 18 18 18 18
34 33 33 34 35 34 33 31 32 32 32 31 30 29 27 26 25 24 23 22 21 21 20 20 20 19 19 19 19 19 19 19 18 18 18 18 18 18 18 18 18 18 18 18 18 18 18 18 18
34 34 34 34 34 35 33 33 34 33 33 32 31 29 28 26 25 24 23 22 21 21 21 21 20 20 19 19 19 19 19 19 18 18 18 18 18 18 18 18 18 18 18 18 18 18 18 18 18
35 34 34 34 35 34 34 34 34 34 33 32 31 30 28 27 25 24 23 22 21 21 21 20 20 20 19 19 19 19 19 19 18 18 18 18 18 18 18 18 18 18 18 18 18 18 18 18 18
34 34 34 35 35 34 34 34 34 34 33 33 32 30 28 27 25 24 23 22 21 21 21 21 20 20 20 19 19 19 18 18 18 18 18 18 18 18 18 18 18 18 18 18 18 18 18 18 18
34 34 34 34 34 35 34 33 33 34 33 33 32 30 29 28 26 24 23 22 22 21 21 21 20 20 20 19 19 19 18 18 18 18 18 18 18 18 18 18 18 18 18 18 18 18 18 18 18
33 34 34 34 33 33 34 31 32 32 32 33 32 31 30 28 26 25 23 23 22 21 21 20 20 20 20 19 19 19 18 18 18 18 18 18 18 18 18 18 18 18 18 18 18 18 18 18 18
34 34 34 34 33 33 34 32 31 31 31 32 32 32 30 29 27 25 24 23 22 21 20 20 20 20 20 19 19 19 18 18 18 18 18 18 18 18 18 18 18 18 18 18 17 18 18 18 18
34 33 33 33 33 31 33 32 30 31 31 32 32 32 30 29 27 26 24 23 22 21 21 20 20 20 20 19 19 19 18 18 18 18 18 18 18 18 18 18 18 18 18 18 17 17 18 18 18
33 32 31 30 31 31 33 33 32 33 33 33 33 32 30 29 28 26 24 23 22 21 21 20 20 20 19 19 19 19 19 18 18 18 18 18 18 18 18 18 18 17 18 17 17 17 17 17 17
32 32 30 30 30 30 32 32 33 34 34 33 32 32 30 29 28 26 24 23 22 22 21 20 20 20 19 19 19 19 18 18 18 18 18 18 18 18 18 17 17 17 17 17 17 17 17 17 17
32 32 33 32 32 31 31 31 33 34 34 33 33 32 31 29 28 26 25 23 22 22 21 20 20 19 19 19 19 19 18 18 18 18 18 18 18 17 17 17 17 17 17 17 17 17 17 17 17
33 33 33 32 30 30 30 31 31 32 33 33 33 32 30 29 28 27 25 24 23 22 21 20 20 19 19 19 19 19 18 18 18 18 18 17 17 17 17 17 17 17 17 17 17 17 17 17 17
32 32 32 32 32 30 29 29 32 32 32 33 32 31 30 29 28 27 25 24 23 22 21 20 20 19 19 19 19 18 18 18 18 18 17 17 17 17 17 17 17 17 17 17 17 17 17 17 17
33 32 32 30 30 31 30 30 33 33 33 33 32 30 29 28 28 27 25 24 23 22 21 20 20 19 19 19 19 18 18 18 18 18 17 17 17 17 17 17 17 17 17 17 17 16 16 16 16
Wind_Speed
10 11 9 6 2 8 17 18 17 16 16 15 16 16 20 17 13 14 16 21 22 19 18 17 16 15 15 15 14 14 14 13 13 13 13 14 14 14 14 14 14 15 15 15 15 15 15 15 14
10 11 8 3 4 12 16 16 17 15 14 16 19 21 22 20 19 18 18 20 21 19 18 17 16 15 15 14 14 14 13 13 13 13 13 13 13 14 14 14 14 14 15 15 15 15 14 14 13
11 12 5 1 11 14 17 15 14 14 13 16 19 19 16 16 17 16 18 20 20 19 19 18 16 15 14 14 13 13 13 13 13 13 13 13 14 14 14 14 14 14 15 15 14 14 14 13 11
7 4 2 5 16 17 15 13 13 14 14 15 16 14 15 15 18 19 18 20 20 18 19 17 16 15 14 13 13 13 13 12 13 13 13 13 13 14 14 14 14 14 14 14 14 13 13 12 10
7 2 2 10 17 15 14 13 14 16 15 18 19 17 16 18 20 18 17 18 18 19 19 17 16 15 14 13 12 13 12 13 13 12 12 13 13 13 14 14 14 14 14 14 13 12 11 10 8
3 2 3 12 15 14 13 13 14 15 15 17 18 18 14 16 16 16 16 16 18 19 19 17 15 14 13 13 12 12 12 12 12 12 12 13 13 13 13 13 13 13 13 13 12 12 11 9 7
6 4 6 13 13 13 13 13 13 12 13 15 17 16 13 15 15 15 14 15 17 19 18 16 16 14 13 13 12 12 12 12 12 11 11 12 12 12 12 12 12 12 12 11 11 11 10 8 5
5 2 8 11 12 13 12 12 13 13 12 12 13 12 15 16 15 15 14 14 15 16 16 16 16 15 14 13 12 12 11 11 11 10 10 11 12 12 12 12 11 11 10 10 10 10 9 7 4
4 2 7 11 11 11 11 12 14 12 8 10 14 18 20 19 16 15 13 13 12 13 12 12 14 13 13 14 13 12 11 10 11 9 9 10 9 11 10 12 10 9 9 9 8 8 8 7 5
1 3 9 9 9 9 9 11 12 11 8 11 18 20 20 18 16 14 13 13 12 11 12 11 11 10 10 11 12 11 10 11 8 8 9 8 6 8 11 12 9 8 8 7 8 8 7 6 6
2 6 8 8 8 6 7 9 10 12 11 13 19 21 19 18 15 13 12 12 11 10 9 12 10 8 7 8 8 7 8 9 7 7 7 6 7 9 10 9 9 8 8 7 8 9 8 7 4
1 6 4 5 6 4 5 7 9 10 13 17 19 20 18 17 14 13 12 12 11 9 8 10 10 6 5 6 6 6 6 6 6 6 5 5 3 4 6 5 8 8 7 5 5 5 4 3 3
1 1 2 2 3 5 5 6 8 12 15 18 19 18 17 16 14 12 12 11 11 8 8 9 9 7 4 3 2 4 4 5 7 7 3 4 3 2 3 2 1 3 5 5 2 2 3 2 1
2 2 2 2 4 4 3 6 7 11 15 17 18 16 16 15 14 12 12 11 11 9 8 9 8 7 5 3 1 1 3 4 6 7 6 3 3 4 3 2 1 1 1 3 3 2 2 1 1
5 7 7 5 5 5 3 2 6 11 13 15 15 15 15 14 13 12 12 11 11 10 8 8 8 7 6 5 4 3 3 5 4 6 6 4 3 4 3 2 1 1 2 3 2 1 1 1 1
9 10 7 4 4 7 6 2 4 9 12 12 13 14 14 12 13 12 12 10 10 10 9 8 8 9 6 4 3 2 2 3 4 5 6 5 4 4 2 2 2 2 2 2 2 1 1 1 1
11 11 7 6 4 4 4 7 9 10 11 12 12 14 14 13 12 12 13 11 9 9 9 8 6 8 8 6 4 3 1 2 2 3 4 6 6 6 4 2 2 3 1 1 2 2 1 1 1
7 7 5 6 4 3 4 6 9 10 9 11 12 13 14 13 12 13 12 12 10 9 9 8 7 7 7 6 4 3 3 3 3 3 4 5 5 7 5 3 3 3 2 1 1 2 1 1 2
9 6 1 3 3 3 4 5 7 8 8 9 11 13 13 13 13 13 12 12 11 9 9 8 8 7 6 5 5 5 4 4 4 5 7 7 6 5 3 2 3 3 2 2 2 1 2 3 2
9 8 5 4 3 4 6 5 6 7 7 7 10 12 14 14 13 13 12 12 11 10 10 9 8 9 8 6 5 4 3 4 4 4 6 8 6 5 6 4 3 4 2 2 2 2 2 3 3
10 9 7 3 2 7 8 7 5 5 7 7 9 12 13 14 15 14 13 12 12 11 10 9 8 8 8 6 4 3 2 2 3 3 4 5 6 6 5 5 4 3 3 4 4 4 4 3 3
10 8 7 7 8 8 8 5 4 6 6 9 10 11 13 14 15 15 13 12 11 10 10 7 7 7 6 6 5 5 4 4 4 3 3 4 5 5 6 5 4 3 3 3 5 5 4 4 3
8 4 6 10 10 12 11 5 5 9 6 7 9 11 12 13 15 15 13 11 10 10 9 8 7 6 5 5 5 5 4 4 3 3 3 4 4 5 6 5 4 4 3 4 4 2 3 2 3
7 6 8 11 11 13 11 7 3 5 6 5 8 9 11 12 13 14 13 12 10 10 9 8 7 6 5 5 5 4 4 4 3 4 4 4 4 4 5 5 4 4 3 3 3 3 4 3 3
10 9 7 8 9 9 8 6 3 6 6 5 7 9 11 12 13 13 13 12 11 10 9 9 8 6 5 5 4 3 4 4 4 4 4 4 4 4 5 5 3 3 3 3 3 3 3 3 4
13 13 11 8 6 4 6 4 4 8 7 6 7 9 11 12 13 14 13 12 11 11 10 9 8 7 6 5 4 3 3 3 3 4 4 4 3 4 4 4 3 4 3 4 3 3 4 4 4
13 14 16 15 14 9 4 4 5 9 8 7 8 10 11 12 13 14 14 13 11 10 9 9 8 7 6 5 4 3 3 3 2 2 3 2 2 3 4 4 4 3 3 2 3 3 3 3 3
16 13 10 11 10 9 5 6 4 8 8 8 8 10 12 12 13 14 13 13 12 11 9 9 8 7 5 5 4 4 3 2 1 1 1 1 1 1 1 2 2 2 2 3 3 3 3 3 3
15 15 11 9 10 10 6 2 3 5 5 7 8 9 11 11 13 13 12 12 12 11 11 9 8 7 6 5 4 3 3 3 2 2 2 1 1 1 1 0 1 2 2 2 3 3 2 2 3
15 16 14 10 8 10 9 3 5 5 7 7 9 10 9 9 10 13 14 12 11 11 11 10 9 8 6 5 5 4 3 3 3 3 3 2 2 1 1 0 0 1 2 2 2 3 3 3 3
Wind_Direction
264 253 242 257 233 75 69 67 68 68 65 61 60 67 65 64 83 95 108 107 109 112 115 110 107 106 104 102 101 99 97 95 93 91 90 90 91 92 94 94 94 93 93 96 97 96 97 98 99
279 272 258 256 69 78 74 71 70 68 69 71 69 73 75 75 90 103 108 112 114 118 117 111 110 107 105 104 102 100 97 95 95 94 93 92 91 93 94 94 94 94 95 96 97 98 99 101 102
272 262 266 148 75 77 80 79 81 79 74 80 77 70 74 90 100 108 116 117 111 107 108 112 113 111 109 107 105 103 100 97 96 95 93 94 95 94 94 95 96 96 96 96 98 99 101 103 105
278 266 235 85 83 80 85 91 92 87 81 83 87 81 74 90 107 116 123 115 115 118 114 116 116 114 112 110 108 106 104 101 98 97 95 96 96 96 96 96 96 97 98 98 99 101 103 105 108
267 289 79 87 85 84 84 87 90 85 80 83 89 93 90 97 112 121 123 122 124 118 118 121 119 117 116 114 112 108 106 103 102 102 100 99 99 98 98 98 97 98 98 99 100 102 104 105 108
284 289 105 90 89 90 89 87 82 89 94 100 102 102 101 113 123 131 130 129 125 122 120 123 123 121 119 117 115 113 111 109 108 107 105 105 104 103 102 101 100 100 100 101 101 103 103 106 107
259 275 96 96 95 92 91 93 92 93 95 101 112 112 123 133 135 134 130 126 124 123 127 135 133 129 126 122 119 118 117 116 115 115 115 113 113 111 108 104 103 103 105 106 105 105 107 112 115
275 341 90 95 94 92 94 93 94 89 91 109 120 120 138 139 142 134 129 126 126 129 135 141 140 140 141 133 129 127 126 126 126 127 127 125 123 122 122 114 108 109 112 114 115 115 117 124 131
299 327 83 84 89 97 99 99 92 85 83 84 91 118 136 143 143 141 139 132 128 127 133 137 137 146 148 141 139 140 140 142 144 145 145 147 146 138 138 116 120 118 121 127 130 132 137 146 164
333 71 75 74 75 95 105 112 116 111 98 95 101 117 134 144 147 151 147 142 138 134 138 134 136 143 146 139 146 156 156 157 170 152 161 174 154 135 124 131 134 136 139 147 156 157 169 184 183
28 70 75 85 78 85 103 112 122 128 134 134 130 137 145 149 154 156 153 147 140 146 141 136 131 140 141 132 156 151 148 155 159 155 163 168 150 137 136 150 153 165 172 178 167 186 201 202 198
35 77 68 75 89 90 89 98 104 105 112 128 137 144 150 155 160 159 154 146 144 154 142 134 130 139 132 131 142 149 148 152 147 158 185 153 145 135 137 156 167 175 180 181 175 186 176 151 139
264 85 113 117 124 96 79 83 91 101 110 122 135 146 155 160 162 158 152 146 145 152 146 130 130 134 127 115 171 152 147 151 147 150 176 147 141 127 118 122 170 189 158 160 147 125 107 94 119
311 298 251 166 112 108 118 118 119 116 124 130 141 153 162 161 159 154 150 149 153 160 153 139 141 141 142 146 174 142 155 139 143 146 149 154 131 126 134 150 216 263 105 116 114 122 122 119 21
269 260 242 185 159 129 71 82 123 130 134 140 149 158 160 159 157 157 155 156 159 160 154 149 152 152 160 171 192 185 184 162 144 127 136 150 136 133 158 158 206 202 133 123 109 108 131 170 160
246 249 245 165 146 138 134 171 173 149 150 149 154 157 157 156 159 157 155 156 157 159 155 164 168 158 165 178 198 205 205 135 133 140 149 158 151 165 199 193 201 184 178 166 156 220 162 117 108
233 231 214 153 163 165 169 167 184 169 158 156 159 159 158 158 164 159 158 161 160 156 155 170 166 160 171 176 189 211 164 110 140 153 155 167 178 188 217 185 171 191 201 195 204 162 164 177 197
264 232 181 150 154 212 191 164 158 164 167 162 164 159 158 164 168 159 158 159 157 155 158 169 173 167 169 174 188 205 183 178 188 184 174 181 199 201 214 188 183 212 208 186 138 122 183 216 214
297 311 312 132 134 257 239 183 164 166 176 164 163 159 162 166 162 155 156 158 159 159 163 172 181 174 176 181 188 195 196 194 197 194 183 194 212 211 219 231 174 225 213 184 192 170 209 230 217
280 277 257 181 143 265 265 237 182 171 172 168 165 159 162 161 158 156 159 163 166 165 169 176 184 180 186 187 187 193 193 204 199 202 181 193 201 211 213 208 215 208 199 198 203 194 241 247 212
258 267 289 296 207 242 253 246 206 172 164 162 167 163 165 165 161 162 168 172 170 169 175 180 179 179 188 183 184 188 180 214 206 196 183 199 203 215 233 208 229 219 204 197 207 203 216 243 250
250 261 291 292 276 274 254 249 175 176 192 178 173 169 168 165 162 165 171 171 171 169 171 168 168 174 180 181 191 192 197 208 208 199 187 196 204 214 221 223 223 232 236 201 214 208 207 229 251
262 306 280 274 273 276 275 263 180 171 203 182 168 165 163 160 161 164 167 164 163 162 162 161 159 164 170 181 191 203 214 215 208 195 187 200 207 216 225 221 216 220 232 226 222 189 199 223 243
255 268 265 263 265 262 262 268 178 165 179 165 159 153 154 156 156 156 155 152 155 158 159 158 155 162 172 186 192 204 220 223 217 200 192 205 207 214 220 217 210 218 224 232 225 204 210 224 246
230 240 243 242 238 254 254 250 171 137 148 160 146 148 150 151 150 148 149 154 158 161 158 155 155 163 172 181 191 197 216 225 220 212 204 211 207 208 207 207 198 212 220 225 220 203 226 227 228
217 237 247 260 259 259 261 250 142 127 123 129 143 144 146 147 147 149 153 155 160 161 157 154 155 162 170 174 183 186 204 223 220 215 215 218 221 213 194 189 196 206 216 226 206 214 221 220 226
226 228 251 265 273 274 214 236 160 138 141 150 154 148 149 149 149 151 154 156 158 158 153 151 150 156 165 168 171 176 190 212 216 201 218 224 219 215 184 185 192 203 208 221 208 221 233 220 219
245 245 246 262 279 286 256 238 191 150 155 155 154 148 144 149 151 150 152 154 153 152 146 143 145 149 153 155 165 163 166 159 151 167 148 191 252 258 160 175 193 211 216 213 218 226 230 220 229
222 243 253 265 268 274 277 347 74 144 153 158 156 145 144 154 150 147 145 147 148 147 147 144 143 146 148 147 148 129 139 136 132 102 92 97 74 48 69 174 224 223 216 217 222 230 216 217 230
231 227 235 244 260 276 277 226 165 157 175 164 136 130 138 142 143 143 144 146 148 150 149 148 149 150 150 145 137 124 121 118 116 105 99 97 97 86 74 111 310 271 243 237 229 235 225 217 225
Height
1489 1488 1488 1490 1487 1489 1494 1490 1488 1490 1492 1494 1495 1497 1502 1506 1513 1526 1530 1531 1533 1534 1536 1538 1539 1541 1542 1543 1544 1545 1546 1547 1548 1549 1549 1550 1550 1551 1552 1552 1553 1554 1555 1556 1556 1557 1558 1559 1560
1490 1490 1492 1489 1490 1501 1501 1492 1493 1494 1495 1497 1499 1503 1508 1513 1519 1525 1530 1534 1535 1537 1538 1540 1541 1543 1544 1545 1546 1547 1548 1549 1550 1551 1551 1552 1553 1553 1554 1555 1556 1556 1557 1558 1559 1560 1560 1561 1562
1491 1492 1492 1486 1491 1500 1501 1493 1493 1495 1497 1499 1504 1509 1514 1520 1524 1528 1533 1536 1538 1539 1540 1542 1543 1545 1546 1547 1548 1549 1550 1551 1552 1553 1554 1554 1555 1556 1557 1557 1558 1559 1559 1560 1561 1562 1563 1564 1565
1494 1493 1490 1486 1493 1490 1491 1492 1494 1496 1499 1502 1506 1514 1520 1524 1528 1532 1535 1538 1539 1541 1542 1543 1545 1546 1548 1549 1550 1551 1552 1553 1554 1555 1556 1557 1557 1558 1559 1560 1561 1561 1562 1563 1563 1564 1565 1566 1567
1496 1493 1490 1491 1491 1489 1489 1492 1494 1497 1501 1505 1511 1519 1525 1529 1531 1534 1537 1540 1542 1543 1544 1545 1547 1548 1549 1551 1552 1553 1554 1555 1556 1557 1558 1559 1560 1560 1561 1562 1563 1564 1564 1565 1566 1566 1567 1568 1569
1495 1490 1495 1498 1494 1490 1491 1494 1497 1500 1503 1508 1514 1521 1528 1532 1534 1537 1539 1541 1543 1544 1545 1547 1548 1550 1551 1553 1554 1555 1556 1557 1558 1559 1560 1561 1562 1563 1564 1564 1565 1566 1567 1568 1568 1568 1569 1570 1571
1495 1491 1493 1493 1494 1493 1492 1495 1498 1501 1504 1508 1514 1521 1529 1533 1536 1538 1541 1543 1545 1546 1547 1548 1550 1552 1553 1554 1556 1557 1558 1559 1560 1561 1562 1563 1564 1565 1566 1567 1568 1568 1569 1570 1570 1571 1571 1572 1574
1489 1487 1490 1491 1494 1495 1493 1496 1500 1503 1507 1510 1513 1519 1528 1533 1536 1539 1542 1545 1547 1548 1549 1551 1552 1553 1555 1556 1557 1559 1560 1561 1562 1563 1564 1565 1566 1567 1568 1569 1570 1571 1571 1572 1573 1573 1574 1575 1576
1488 1490 1493 1491 1492 1493 1493 1497 1503 1507 1509 1511 1512 1518 1527 1532 1536 1540 1543 1545 1548 1550 1551 1553 1554 1555 1557 1558 1559 1560 1561 1563 1564 1565 1566 1567 1568 1569 1570 1571 1572 1573 1573 1574 1575 1576 1576 1577 1579
1486 1492 1490 1486 1487 1490 1493 1497 1502 1508 1513 1515 1518 1523 1528 1533 1537 1540 1543 1546 1548 1550 1552 1554 1556 1557 1559 1560 1561 1562 1563 1564 1565 1567 1568 1568 1570 1571 1572 1573 1573 1574 1575 1576 1577 1578 1578 1579 1580
1485 1487 1486 1487 1490 1491 1492 1496 1500 1505 1510 1515 1519 1524 1529 1533 1537 1540 1543 1546 1548 1551 1553 1555 1556 1558 1560 1561 1562 1564 1565 1565 1567 1568 1569 1570 1571 1572 1573 1574 1575 1576 1576 1577 1578 1579 1580 1581 1582
1486 1487 1488 1488 1492 1492 1493 1495 1499 1502 1507 1513 1519 1524 1529 1533 1536 1539 1543 1546 1548 1551 1553 1555 1556 1558 1560 1562 1563 1565 1566 1566 1568 1568 1570 1571 1572 1573 1574 1575 1576 1577 1578 1579 1579 1580 1581 1582 1583
1488 1488 1489 1490 1491 1493 1495 1497 1500 1504 1509 1514 1520 1525 1529 1533 1536 1539 1542 1545 1548 1551 1553 1554 1556 1558 1559 1561 1563 1565 1566 1567 1568 1569 1570 1572 1573 1574 1575 1576 1577 1578 1579 1580 1580 1581 1582 1583 1584
1488 1489 1488 1489 1491 1494 1495 1498 1502 1506 1510 1515 1521 1525 1529 1532 1536 1539 1542 1544 1547 1550 1552 1553 1555 1557 1558 1560 1562 1564 1565 1567 1568 1569 1569 1571 1572 1573 1575 1576 1577 1578 1580 1580 1581 1582 1582 1583 1584
1491 1490 1487 1486 1489 1493 1497 1503 1503 1506 1510 1515 1520 1524 1528 1532 1535 1538 1541 1543 1546 1548 1550 1552 1554 1556 1558 1559 1561 1564 1565 1566 1568 1568 1569 1570 1572 1573 1574 1575 1577 1578 1579 1580 1581 1581 1582 1583 1584
1490 1492 1495 1486 1489 1492 1501 1516 1503 1505 1509 1514 1518 1523 1527 1531 1535 1537 1540 1542 1545 1547 1549 1551 1553 1554 1556 1558 1560 1563 1565 1566 1567 1568 1568 1569 1571 1572 1573 1575 1576 1577 1579 1580 1580 1581 1582 1582 1583
1491 1496 1495 1491 1488 1490 1497 1508 1501 1503 1507 1511 1516 1520 1526 1530 1534 1537 1539 1541 1544 1546 1547 1549 1552 1553 1555 1557 1559 1561 1563 1564 1565 1567 1568 1569 1570 1571 1573 1574 1575 1577 1578 1579 1580 1580 1581 1582 1582
1493 1488 1490 1492 1488 1489 1494 1498 1496 1499 1503 1507 1513 1518 1523 1528 1532 1535 1538 1540 1542 1544 1546 1548 1550 1551 1553 1555 1557 1559 1561 1562 1564 1566 1566 1568 1569 1570 1572 1573 1574 1576 1577 1578 1579 1579 1580 1581 1581
1486 1487 1490 1488 1485 1490 1492 1493 1493 1495 1500 1504 1509 1515 1521 1526 1531 1534 1537 1540 1541 1543 1544 1546 1548 1550 1552 1553 1555 1557 1559 1561 1562 1564 1565 1566 1567 1569 1570 1571 1572 1574 1575 1576 1577 1578 1579 1580 1581
1489 1492 1490 1486 1485 1490 1491 1491 1489 1493 1497 1501 1506 1512 1518 1524 1529 1533 1536 1538 1540 1541 1543 1544 1546 1548 1550 1552 1554 1556 1557 1559 1560 1562 1563 1564 1565 1567 1568 1569 1570 1572 1573 1575 1576 1577 1577 1578 1579
1494 1493 1490 1490 1487 1486 1491 1496 1492 1492 1496 1501 1505 1509 1515 1520 1526 1531 1534 1537 1539 1540 1541 1543 1545 1547 1548 1550 1552 1554 1556 1557 1559 1559 1560 1562 1563 1564 1566 1567 1569 1570 1572 1573 1574 1575 1575 1576 1578
1499 1488 1489 1491 1496 1498 1492 1510 1498 1495 1497 1498 1502 1507 1511 1517 1523 1528 1532 1535 1537 1539 1541 1542 1544 1545 1547 1549 1550 1552 1553 1554 1556 1557 1558 1559 1560 1562 1563 1564 1566 1568 1569 1570 1572 1573 1574 1575 1575
1492 1487 1491 1493 1496 1500 1492 1502 1503 1494 1500 1497 1499 1503 1509 1514 1520 1526 1530 1533 1536 1538 1540 1541 1542 1544 1545 1547 1548 1550 1551 1552 1554 1555 1555 1556 1558 1559 1561 1562 1563 1565 1566 1568 1569 1570 1571 1572 1573
1489 1493 1495 1495 1498 1512 1498 1502 1510 1497 1497 1496 1498 1502 1507 1513 1518 1524 1528 1532 1535 1538 1540 1540 1541 1543 1544 1545 1546 1548 1549 1550 1551 1552 1553 1554 1555 1556 1558 1559 1560 1562 1563 1565 1566 1568 1569 1570 1571
1493 1505 1518 1520 1519 1515 1491 1497 1500 1487 1487 1492 1495 1500 1506 1512 1517 1523 1527 1531 1534 1537 1539 1540 1540 1542 1543 1544 1545 1546 1547 1548 1549 1550 1551 1552 1553 1554 1555 1556 1558 1559 1561 1562 1564 1565 1566 1567 1568
1496 1501 1519 1528 1524 1516 1499 1500 1490 1481 1486 1491 1495 1500 1505 1511 1516 1522 1526 1530 1533 1536 1538 1539 1540 1541 1542 1543 1544 1545 1546 1546 1547 1548 1549 1550 1551 1552 1553 1554 1555 1557 1558 1560 1561 1562 1563 1564 1565
1493 1497 1491 1500 1503 1511 1507 1499 1486 1482 1486 1490 1494 1499 1504 1510 1515 1520 1525 1529 1532 1535 1537 1538 1539 1541 1542 1543 1543 1544 1545 1546 1546 1547 1547 1548 1549 1550 1552 1552 1553 1555 1556 1557 1558 1559 1560 1561 1562
1485 1486 1493 1503 1517 1524 1512 1504 1498 1490 1489 1490 1493 1498 1504 1509 1514 1519 1524 1528 1532 1534 1536 1538 1539 1540 1541 1542 1543 1544 1544 1545 1545 1546 1546 1547 1548 1549 1550 1551 1552 1553 1554 1555 1556 1557 1558 1559 1559
1490 1492 1493 1495 1499 1515 1525 1519 1489 1489 1488 1489 1493 1498 1503 1508 1513 1518 1523 1527 1531 1534 1536 1537 1539 1540 1541 1542 1543 1543 1544 1544 1545 1545 1546 1546 1547 1548 1548 1549 1550 1551 1552 1553 1553 1554 1555 1556 1556
1481 1487 1491 1507 1508 1502 1510 1511 1484 1485 1486 1489 1493 1499 1503 1509 1512 1517 1522 1527 1530 1533 1535 1537 1538 1540 1541 1541 1542 1543 1544 1544 1544 1545 1545 1545 1546 1547 1547 1548 1549 1549 1550 1550 1551 1552 1552 1553 1553